Location: Brunsbüttel
(52.3892°N, 10.6138°E)
Time: 17:14:09
(UTC+00:00)

Daily predictions for brighter satellites

Satellite Brightness Start Highest point End
(mag) Time Altitude Azimuth Time Altitude Azimuth Time Altitude Azimuth
Cosmos 1814 Rocket 4.0 19:48:10 10° SSW 19:53:15 68° ESE 19:58:25 10° NNE
Cosmos 1867 3.8 19:49:18 10° NW 19:54:47 70° NE 20:00:13 10° SE
Alouette 2 Rocket 4.1 19:51:57 10° NNW 19:55:27 52° WSW 19:59:38 10° S
Cosmos 1656 4.3 19:51:20 10° NW 19:56:52 56° WSW 20:02:17 10° S
Cosmos-2242 3.6 19:53:03 10° SSE 19:57:01 39° E 20:01:00 10° NNE
Nadezhda 1 Rocket 4.0 19:51:13 10° S 19:57:15 67° E 20:03:23 10° NNE
Cosmos 2154 Rocket 4.2 19:51:09 10° NNW 19:57:22 77° W 20:03:34 10° S
Cosmos 2341 Rocket 4.4 19:53:45 10° N 19:59:50 49° ENE 20:05:50 10° SSE
Cosmos 2184 Rocket 4.5 19:54:10 10° NNW 20:00:21 66° W 20:06:35 10° S
SeaSat 1 3.5 19:58:00 10° ESE 20:02:28 36° NE 20:06:57 10° NNW
Cosmos 2082 Rocket 4.0 20:01:41 10° ESE 20:03:35 12° E 20:05:29 10° ENE
Cosmos 1933 3.2 20:00:08 10° S 20:03:59 80° E 20:07:53 10° NNE
Okean O Rocket 2.3 19:59:50 10° S 20:04:06 53° W 20:08:22 10° NNW
Cosmos 2221 4.3 20:01:46 10° ESE 20:04:15 16° E 20:06:44 10° NE
Iridium 4 Rocket 3.7 19:59:58 10° N 20:05:01 84° W 20:10:30 10° S
SPOT 3 Rocket 3.8 20:03:30 10° SE 20:08:31 55° ENE 20:13:31 10° N
Okean-O 3.0 20:05:14 10° S 20:09:35 64° WSW 20:13:58 10° NNW
ERS-1 Rocket 3.4 20:06:41 10° S 20:11:40 65° WSW 20:16:41 10° NNW
Cosmos 1743 3.1 20:13:32 10° NNW 20:16:54 52° W 20:20:13 10° S
ISS -3.7 20:16:32 10° W 20:19:52 65° SSW 20:23:12 10° ESE
BREEZE-M R/B 4.4 19:59:38 10° W 20:22:13 71° SSW 20:27:02 10° ESE
Lacrosse 4 Rocket 3.8 20:19:01 10° W 20:22:27 28° NW 20:25:59 10° NNE
Cosmos 2084 Rocket 4.5 20:19:06 10° S 20:22:36 25° ESE 20:26:05 10° ENE
Spot 2 Rocket 3.6 20:18:23 10° SSE 20:23:25 81° WSW 20:28:30 10° NNW
ARIANE 6 FM1 Upper Stage 2.5 20:20:24 10° SW 20:24:21 62° SE 20:28:22 10° NE
NOSS 3-1 (C) 3.5 20:20:06 10° S 20:24:32 39° ESE 20:29:50 10° NE
Cosmos 2333 Rocket 4.4 20:22:05 10° NNW 20:26:10 19° NNE 20:30:12 10° ENE
IKONOS-2 4.4 20:22:31 10° NNE 20:26:39 71° ESE 20:30:45 10° S
Cosmos 1833 Rocket 2.7 20:25:13 10° SSW 20:30:47 64° ESE 20:36:23 10° NE
Cosmos 1356 Rocket 3.9 20:28:39 10° SSE 20:32:31 41° E 20:36:23 10° NNE
Cosmos 1733 2.7 20:30:09 10° NNW 20:33:15 77° W 20:36:07 11° S
Cosmos 1821 Rocket 4.4 20:29:19 10° N 20:35:15 48° ENE 20:40:29 13° SE
Cosmos 158 Rocket 4.1 20:34:22 10° SSW 20:39:41 89° ESE 20:45:06 10° NNE
USA 245 4.2 20:35:40 10° S 20:39:50 60° W 20:45:02 10° NNW
Cosmos 2218 Rocket 4.1 20:33:42 10° N 20:40:07 75° ENE 20:46:01 12° SSE
Cosmos 2058 Rocket 3.9 20:40:18 10° SSW 20:44:41 53° WNW 20:49:04 10° N
Helios 1A 4.3 20:43:08 10° N 20:46:56 40° WNW 20:50:43 10° SW
Cosmos 1805 3.8 20:45:16 10° N 20:48:31 36° ENE 20:50:42 17° SE
SWARM A 4.3 20:48:25 15° SSE 20:51:02 62° E 20:54:23 10° N
PSLV R/B 3.8 20:49:41 13° S 20:52:24 55° WSW 20:55:38 10° NNW
Cosmos 1812 Rocket 3.6 20:48:56 12° S 20:52:46 59° E 20:57:01 10° NNE
Cosmos 1980 Rocket 2.2 20:47:16 10° NNW 20:52:54 83° ENE 20:57:27 16° SSE
NOSS 3-1 (A) 3.8 20:50:27 12° S 20:54:17 30° ESE 20:59:09 10° ENE
Terra 3.4 20:51:46 10° SSW 20:55:55 31° W 21:00:06 10° NNW
USA 234 3.2 20:49:31 10° ENE 20:56:04 70° SSE 21:02:34 10° SW
ATLAS CENTAUR R/B 1.3 20:52:32 10° SW 20:56:16 73° NW 21:00:07 10° NE
Cosmos 1315 Rocket 3.0 20:55:12 15° S 20:58:11 52° E 21:01:59 10° NNE
BREEZE-M DEB (TANK) 4.3 20:39:18 10° W 20:59:45 75° S 21:04:48 10° E
Meteor 1-26 Rocket 4.4 20:55:29 10° SSW 21:01:22 84° WNW 21:07:27 10° NNE
Cosmos 2208 Rocket 4.1 20:56:06 10° S 21:01:24 63° ESE 21:06:40 10° NNE
SL-16 R/B 3.4 20:58:42 10° NNW 21:03:52 34° NE 21:09:01 10° ESE
Cosmos 2181 Rocket 4.1 20:58:41 11° S 21:04:44 70° E 21:11:06 10° NNE
DELTA 2 DEB (DPAF) 4.3 21:02:55 10° NNE 21:06:41 41° E 21:09:02 20° SSE
Meteor 1-11 Rocket 4.2 21:01:34 10° N 21:06:57 49° ENE 21:10:57 18° SE
Genesis I 4.4 21:05:10 10° NNW 21:07:25 22° NNE 21:09:40 10° E
BlueWalker 3 2.9 21:05:23 10° W 21:08:35 29° SW 21:10:13 20° S
SL-24 R/B 4.1 21:04:47 10° NNE 21:09:05 67° ESE 21:12:50 14° S
Meteor 2-10 4.3 21:03:36 10° NNW 21:09:20 76° W 21:13:58 15° S
Cosmos 2322 Rocket 3.8 21:07:49 10° NNW 21:12:41 28° NE 21:17:29 10° E
Cosmos 1975 4.3 21:10:37 10° NNE 21:13:36 22° ENE 21:15:35 15° ESE
Cosmos 2366 rocket 4.4 21:09:01 10° NNW 21:15:19 64° W 21:21:09 12° S
SL-24 DEB 4.4 21:14:17 14° S 21:18:05 66° W 21:22:38 10° N
CZ-4C R/B 4.1 21:15:08 10° NNE 21:18:23 29° E 21:19:42 23° SE
Meteor 1-14 Rocket 4.3 21:13:51 10° NNW 21:19:29 84° W 21:23:50 18° S
Ariane Rocket 3.9 21:16:59 12° S 21:21:30 44° W 21:26:22 10° NNW
Cosmos 2298 Rocket 4.4 21:18:55 10° NNW 21:24:11 60° WSW 21:27:57 19° S
Cosmos 1697 Rocket 3.9 21:19:46 10° NW 21:24:46 33° WSW 21:29:17 12° SSW
Cosmos 1238 Rocket 2.5 21:22:13 17° SSW 21:24:57 79° W 21:28:13 10° N
Lacrosse 5 rocket 3.0 21:23:23 10° W 21:25:25 15° SW 21:26:35 13° SSW
Nadezhda 3 Rocket 4.3 21:21:58 19° SSE 21:26:22 54° E 21:32:26 10° NNE
ARIANE 5 R/B 3.5 21:23:51 18° SE 21:26:32 38° ENE 21:30:36 10° N
Cosmos 1570 Rocket 4.4 21:22:42 10° SW 21:27:55 67° WNW 21:33:12 10° NNE
Cosmos 1766 4.3 21:27:01 10° N 21:30:05 28° ENE 21:31:35 20° ESE
Cosmos 2278 4.4 21:24:47 10° NNW 21:30:15 47° NE 21:34:48 15° ESE
Cosmos 1934 Rocket 4.4 21:25:07 10° N 21:31:13 52° ENE 21:35:32 20° SE
CENTAUR R/B 3.9 21:24:31 10° NW 21:31:56 52° NNE 21:40:41 10° ESE
Cosmos 2360 Rocket 3.7 21:27:30 10° NNW 21:32:28 31° NE 21:37:25 10° ESE
ATLAS 3B R/B 3.8 21:30:07 19° SSE 21:33:54 29° ESE 21:40:18 10° NE
Cosmos 1536 2.9 21:31:34 10° NNW 21:35:22 66° W 21:37:32 24° S
Meteor 2-6 Rocket 4.4 21:30:19 11° SSW 21:35:57 81° WNW 21:41:42 10° NNE
Cosmos 2369 3.7 21:32:08 10° NNW 21:37:48 75° WSW 21:41:29 23° SSE
SeaSat 1 2.9 21:36:40 21° S 21:39:46 50° WSW 21:44:33 10° NW
Cosmos 405 Rocket 2.7 21:36:53 10° N 21:40:16 55° ENE 21:41:39 31° SE
Cosmos 2221 2.7 21:37:30 15° SSW 21:40:52 65° WNW 21:45:02 10° N
CZ-2C R/B 4.4 21:37:46 10° NNE 21:41:51 36° E 21:43:42 25° SE
Okean 1 3.7 21:42:38 16° SSW 21:45:25 53° WNW 21:49:02 10° N
Cosmos 2082 Rocket 2.2 21:42:05 16° SSW 21:46:31 63° ESE 21:52:05 10° NE
Cosmos 1674 1.3 21:48:35 64° WSW 21:48:44 69° W 21:50:57 10° N
ISS -2.4 21:53:32 10° W 21:56:12 23° SW 21:56:12 23° SW
Okean 3 Rocket 3.6 21:52:32 10° N 21:56:57 68° ENE 21:59:09 29° SSE
Cosmos 773 Rocket 4.3 21:52:08 10° SW 21:57:14 66° WNW 22:02:21 10° NNE
COBE Rocket 4.0 21:52:13 10° NNE 21:57:21 90° E 22:00:55 21° SSW
Landsat 5 4.2 21:54:43 10° NNE 21:58:38 38° E 22:00:10 28° SE
Meteor 1-10 Rocket 4.3 21:54:20 19° S 21:58:40 86° E 22:04:33 10° NNE
Cosmos 1766 Rocket 3.9 21:55:27 10° NNW 21:59:47 57° W 22:02:12 24° SSW
Cosmos 220 Rocket 4.2 21:57:21 13° SW 22:00:51 64° WNW 22:04:55 10° NNE
Cosmos 2084 Rocket 3.8 21:56:56 10° WSW 22:01:10 65° NW 22:05:22 10° NE
COSMOS 2406 3.4 21:59:10 23° S 22:02:38 55° ESE 22:08:13 10° NE
Cosmos 1842 4.3 22:02:54 23° ESE 22:03:36 24° E 22:06:27 10° NE
ARIANE 6 FM1 Upper Stage 4.4 22:00:04 10° W 22:03:45 34° NNW 22:07:30 10° NE
USA 59 Rocket -0.5 22:10:24 42° SE 22:10:25 42° SE 22:13:16 10° ENE
Cosmos 2333 Rocket 2.7 22:06:03 10° NNW 22:11:44 57° NE 22:15:54 18° SE
MetOp-A 4.0 22:10:43 27° S 22:13:35 76° WSW 22:18:47 10° NNW
NOSS 3-1 (C) 4.0 22:10:04 10° WSW 22:15:03 54° NNW 22:21:14 10° NE
Cosmos 1833 Rocket 4.5 22:10:04 10° WSW 22:15:07 32° NW 22:20:11 10° NNE
Cosmos 1300 4.3 22:14:21 10° NNE 22:16:41 19° ENE 22:17:48 16° E
Cosmos 1151 Rocket 4.0 22:19:28 25° SE 22:20:53 32° E 22:24:40 10° NNE
NOSS 2-1 (E) 3.0 22:21:20 45° SE 22:21:31 46° SE 22:24:27 10° NE
ALOS 2 2.7 22:19:44 30° SSE 22:21:49 68° ENE 22:26:12 10° N
PKM 3.8 22:20:04 10° WSW 22:22:52 81° NNW 22:28:03 10° ENE
Meteor 2-13 Rocket 4.4 22:19:05 24° S 22:23:01 85° E 22:29:12 10° NNE
Cosmos 2219 Rocket 3.3 22:22:12 10° NNW 22:27:32 40° NE 22:32:39 11° ESE
ATLAS CENTAUR R/B 4.0 22:30:06 10° WNW 22:33:00 20° NNW 22:35:58 10° NNE
Meteor 2-4 Rocket 3.8 22:30:51 28° S 22:33:54 67° E 22:39:41 10° NNE
Meteor 1-27 Rocket 3.7 22:30:55 23° SSW 22:34:28 78° WNW 22:40:03 10° N
Cosmos 1980 Rocket 3.9 22:32:14 10° NW 22:36:13 20° W 22:39:12 14° SW
Sich 1 2.9 22:32:28 10° NNW 22:36:44 82° W 22:38:23 36° S
NOSS 2-1 (D) 2.5 22:36:14 46° SSW 22:37:01 77° SE 22:40:01 10° NE
USA 234 3.6 22:32:39 10° ENE 22:39:07 68° NNW 22:45:37 10° W
Genesis I 3.1 22:38:09 10° NW 22:40:24 37° WSW 22:40:24 37° WSW
NOSS 3-1 (A) 3.5 22:39:32 10° WSW 22:44:31 65° NW 22:50:45 10° NE
PSLV R/B 3.9 22:41:26 10° NNE 22:45:31 48° E 22:46:52 34° SSE
Cosmos 2056 Rocket 4.2 22:42:03 10° NNW 22:47:16 51° ENE 22:50:54 19° SE
SL-16 R/B 2.4 22:42:43 10° NW 22:48:18 60° WSW 22:51:04 30° S
Cosmos 1975 3.7 22:45:40 10° NNW 22:49:02 34° W 22:50:13 27° SW
Cosmos 1500 Rocket 3.6 22:47:28 10° NNW 22:51:50 70° W 22:53:33 35° S
Cosmos 1707 2.2 22:51:13 51° SSW 22:51:59 88° WNW 22:55:21 10° N
H-2A R/B 4.3 22:50:24 12° ESE 22:53:05 22° ENE 22:56:06 10° N
Cosmos 1538 Rocket 3.9 22:50:41 28° SSW 22:53:28 84° ESE 22:58:39 10° NNE
NOSS 2-1 (C) 2.8 22:55:39 32° WSW 22:56:56 73° NW 22:59:56 10° NE
Cosmos 2322 Rocket 2.1 22:51:39 10° NNW 22:57:21 80° WSW 23:00:25 28° SSE
Cosmos 1633 Rocket 4.0 22:54:28 10° N 22:58:35 39° ENE 23:00:47 23° SE
Spot 4 4.4 22:56:43 29° SSW 22:58:47 46° W 23:03:24 10° NNW
Cosmos 1408 Rocket 4.1 22:56:29 10° NNW 23:00:41 48° W 23:02:20 31° SSW
COSMOS 2428 4.2 22:57:24 10° NNW 23:02:37 34° NE 23:07:48 10° ESE
ARIANE 5 R/B 3.9 23:01:14 22° SW 23:02:58 29° W 23:06:47 10° NNW
Cosmos 1908 3.9 23:02:55 10° NNW 23:05:51 31° W 23:06:26 29° WSW
Cosmos 1470 3.1 23:03:02 10° NNW 23:06:28 46° W 23:07:19 37° SW
Meteor 2-10 Rocket 4.2 23:01:49 10° N 23:07:29 58° ENE 23:11:09 22° SE
Cosmos 1066 Rocket 4.2 23:04:56 30° S 23:07:51 78° E 23:13:37 10° NNE
Cosmos 1805 Rocket 4.0 23:03:34 10° NNW 23:07:53 52° W 23:09:35 32° SSW
Cosmos 2278 4.4 23:09:06 10° NW 23:14:20 40° WSW 23:16:39 27° SSW
GP-B 3.0 23:10:22 10° N 23:14:47 86° E 23:16:31 37° S
Exosat Rocket 3.9 23:11:29 10° NW 23:16:21 47° WSW 23:18:24 30° SSW
Cosmos 2360 Rocket 2.2 23:11:19 10° NW 23:16:55 69° WSW 23:19:47 29° S
Meteor 1-18 Rocket 4.3 23:14:33 28° SSW 23:17:45 86° W 23:23:41 10° NNE
Cosmos 2173 Rocket 4.2 23:11:25 10° N 23:17:47 67° ENE 23:21:47 24° SSE
Cosmos 1758 4.4 23:18:44 10° N 23:22:19 36° ENE 23:24:08 22° ESE
CENTAUR R/B 3.2 23:15:11 10° NW 23:23:16 76° SW 23:31:24 15° SSE
Spot 1 4.3 23:19:13 10° N 23:23:26 64° WNW 23:25:33 29° SW
ASTEX 1 3.4 23:18:49 10° N 23:23:47 85° E 23:26:06 32° S
ATLAS 3B R/B 3.0 23:17:16 14° SW 23:23:52 90° NNW 23:31:48 10° NE
USA 229 DEB 3.5 23:20:46 24° SSW 23:24:36 72° SE 23:31:26 10° NE
USA 229 3.5 23:20:54 25° SSW 23:24:42 71° SE 23:31:31 10° NE
Cosmos 1328 Rocket 4.0 23:23:10 32° SSE 23:24:47 49° E 23:28:57 10° NNE
Cosmos 1743 Rocket 4.1 23:21:52 10° NNW 23:26:07 46° W 23:27:46 31° SW
GEOS 3 Rocket 3.9 23:22:15 10° ESE 23:27:19 68° NE 23:32:28 10° NW
Cosmos 2082 Rocket 3.7 23:25:57 10° WSW 23:30:59 33° NW 23:36:03 10° NNE
In-Cosmos 22 4.5 23:31:00 28° SSE 23:34:00 61° E 23:39:42 10° NNE
Cosmos 1842 4.5 23:36:29 21° WSW 23:37:48 28° WNW 23:40:51 10° N
Cosmos 1420 Rocket 4.4 23:36:07 10° NW 23:41:12 49° WSW 23:43:26 30° SSW
Cosmos 2112 Rocket 4.1 23:41:11 31° S 23:43:41 66° ESE 23:48:53 10° NNE
Cosmos 1455 1.3 23:43:56 10° N 23:46:46 78° E 23:47:02 68° SE
Cosmos 2237 Rocket 3.9 23:42:49 10° NNW 23:47:53 33° NE 23:52:57 10° ESE
Cosmos 1300 3.3 23:47:16 10° NNW 23:50:07 30° W 23:50:26 30° WSW
SL-14 R/B 3.4 23:53:45 37° SSE 23:55:06 63° E 23:58:57 10° NNE
